Wind_Speed
25 25 26 27 27 27 25 24 23 23 23 23 23 23 23 23 23 23 22 21 20 19 19 19 18 18 18 17 16 15 14 14 14 13 13 13 13 13 14 13 12 12 12 12 12 12 11 11 11
25 25 26 27 28 28 26 25 24 24 25 24 24 24 24 24 24 24 24 23 22 21 21 21 20 20 19 19 18 17 17 17 15 14 14 14 14 14 15 15 14 14 14 14 14 13 13 13 12
25 25 26 26 27 27 27 26 26 26 26 25 25 25 25 24 25 25 25 25 24 23 22 22 22 21 21 21 20 19 18 18 18 16 16 16 15 15 15 16 16 16 15 15 15 15 14 14 14
25 25 26 26 26 26 26 26 27 27 27 27 26 26 26 26 26 26 26 26 26 25 24 24 23 23 22 22 22 21 20 20 19 18 18 18 17 17 17 16 16 16 16 16 16 16 16 16 15
26 26 27 27 26 26 26 25 26 27 28 28 28 28 28 28 28 28 27 27 27 27 26 25 25 25 24 24 23 23 22 21 21 20 20 20 19 18 18 17 17 18 18 18 18 18 18 18 17
27 27 27 26 26 26 26 26 27 27 28 28 29 29 29 29 29 30 29 29 29 29 28 28 27 27 27 26 26 25 24 23 23 22 22 21 21 20 19 18 19 19 19 19 19 19 19 19 19
28 28 28 27 27 26 26 27 27 28 28 29 29 30 30 31 31 31 31 30 30 30 30 30 29 28 28 28 28 27 27 26 25 25 24 23 23 23 22 22 21 21 20 20 20 20 20 19 19
28 29 29 28 28 28 28 28 28 29 30 30 30 31 31 32 33 33 33 32 32 33 32 32 31 30 30 30 29 29 29 28 28 27 26 26 25 25 25 24 24 24 23 22 22 20 20 20 20
28 29 28 28 29 30 30 29 29 29 30 31 31 31 32 33 33 34 34 33 34 34 34 33 33 33 32 32 31 31 31 30 30 29 28 28 27 27 27 26 26 26 25 24 24 24 24 23 23
28 28 28 28 29 30 31 30 30 30 30 31 32 32 32 33 34 34 34 35 35 35 36 35 35 34 35 35 34 33 33 32 32 31 31 30 29 29 29 28 28 27 27 27 26 26 26 25 25
28 29 28 28 29 30 31 31 31 31 31 32 32 33 33 34 34 35 35 35 36 36 36 36 36 36 36 36 36 36 36 35 34 33 33 33 32 32 31 31 30 29 29 29 28 29 28 27 27
29 29 29 29 30 30 30 30 31 31 32 33 34 34 34 34 34 36 36 37 37 37 37 37 37 37 38 39 38 37 37 37 36 35 35 35 34 34 34 33 32 31 31 31 30 30 30 29 28
29 29 29 29 30 31 31 31 31 31 32 34 35 35 34 34 34 35 36 37 37 37 38 38 38 38 39 40 39 39 38 38 37 37 37 37 36 35 35 34 33 33 33 33 32 32 32 31 31
29 29 30 30 31 31 32 31 32 32 33 33 34 34 34 34 34 34 34 36 37 37 38 38 37 38 39 40 40 39 39 38 38 39 38 38 38 37 37 37 36 35 35 34 34 34 34 33 33
30 30 30 31 32 31 32 32 32 32 32 32 32 32 33 33 34 34 34 35 36 37 38 38 37 38 39 39 40 40 40 39 39 40 40 39 39 39 39 39 38 37 37 36 36 36 36 36 35
30 30 30 30 31 31 31 31 31 32 32 31 30 30 31 32 32 34 35 35 35 36 38 38 39 39 39 40 40 41 40 39 39 39 40 39 39 39 39 39 38 38 38 38 38 38 38 38 38
30 31 30 30 30 31 31 30 30 31 31 30 30 30 29 29 30 32 34 35 36 37 38 39 39 39 39 40 41 40 39 39 39 39 40 40 40 41 40 40 40 39 39 40 40 40 40 40 40
29 29 29 29 30 30 30 29 29 30 30 30 30 30 29 28 29 31 32 34 36 37 38 39 39 39 39 40 40 40 40 41 41 42 41 41 42 42 42 41 40 40 41 41 41 41 41 42 42
28 28 28 28 29 30 29 28 28 28 28 28 28 28 28 29 30 31 32 33 34 36 37 38 39 40 40 40 40 40 40 41 42 42 42 42 42 43 43 43 43 42 42 42 42 42 43 43 43
28 27 27 28 29 29 29 28 27 27 28 28 27 27 28 28 29 30 32 33 34 35 36 37 38 39 39 40 41 41 42 42 42 44 44 44 44 43 43 45 45 44 43 42 43 43 43 43 44
28 27 26 27 28 28 29 28 27 26 27 27 27 27 29 29 30 30 31 32 33 34 36 36 37 38 39 40 42 43 43 44 44 44 45 45 46 46 46 45 45 46 45 43 42 43 44 44 45
26 26 26 26 28 28 28 29 27 26 26 27 28 28 29 30 30 31 32 34 34 35 36 36 36 37 39 40 41 43 44 44 45 45 45 46 45 46 47 46 46 46 46 46 45 45 45 45 46
26 26 26 27 28 29 28 29 27 26 26 26 27 28 29 30 31 31 32 33 35 36 36 37 37 37 38 39 41 42 44 45 46 46 46 46 46 46 47 48 48 47 47 47 47 47 47 46 47
26 26 27 27 28 29 27 29 29 26 25 25 26 27 28 30 31 31 32 32 33 34 35 37 38 38 39 39 41 43 44 45 46 47 47 48 47 47 48 48 49 50 49 48 48 48 48 48 48
26 27 27 28 28 28 27 28 28 25 24 25 26 26 28 29 29 30 30 30 31 32 34 35 37 38 39 40 41 42 43 45 46 47 47 48 48 48 48 49 49 49 49 49 49 48 49 49 49
26 27 27 29 29 28 28 28 26 24 24 25 26 27 28 28 29 28 28 29 31 32 32 33 35 37 39 40 41 41 41 43 45 46 47 47 47 48 48 49 49 48 49 49 50 50 50 50 50
26 26 27 29 30 29 28 27 25 25 25 25 26 27 28 28 28 28 28 29 30 31 32 32 33 35 38 39 41 42 42 43 45 46 47 48 48 49 49 49 50 50 49 50 51 51 52 51 51
25 25 26 28 29 30 29 27 25 25 25 26 26 27 28 27 27 28 28 29 30 31 31 32 33 35 37 39 40 41 42 43 45 45 46 48 49 50 50 50 50 51 51 51 52 53 53 53 52
24 26 27 28 29 30 30 27 25 25 25 26 27 27 27 27 28 28 28 29 30 30 31 32 33 34 35 37 38 39 41 42 43 44 46 47 48 49 50 50 50 51 51 52 53 53 54 54 53
24 26 27 28 29 29 30 28 25 25 26 26 27 27 27 27 27 28 29 29 30 31 31 32 33 33 34 35 36 38 39 40 42 43 44 45 46 47 48 49 50 51 51 52 52 53 53 53 52
Wind_Direction
253 254 254 253 253 253 253 255 257 256 255 255 255 255 255 254 253 252 251 250 250 249 248 248 246 245 246 247 248 249 248 245 245 246 246 245 245 246 247 248 250 249 249 251 251 251 251 253 253
253 254 254 254 254 254 254 255 256 256 256 256 256 256 255 254 253 252 251 250 249 248 247 248 246 244 244 246 247 248 248 246 244 245 247 246 246 248 248 248 250 251 251 252 252 253 254 254 252
254 255 255 255 255 256 257 256 257 256 257 257 255 255 255 254 254 252 250 250 249 248 247 247 246 243 243 245 245 246 246 245 245 247 247 248 247 247 250 251 251 252 253 252 253 254 256 255 254
255 256 256 257 257 259 259 258 257 257 257 257 255 254 254 254 253 252 251 250 249 248 247 246 246 244 243 244 245 246 245 245 246 247 248 249 249 249 251 253 251 251 253 253 254 255 256 255 255
257 257 257 258 258 259 261 261 259 258 258 257 256 256 255 254 253 252 251 250 250 249 248 246 246 245 243 243 245 246 246 246 245 246 248 251 252 252 252 251 252 253 254 253 254 255 256 254 254
258 258 259 259 259 260 261 261 260 260 258 257 258 258 256 255 253 251 250 250 250 249 249 247 245 245 244 243 244 245 247 246 247 248 249 251 252 253 252 253 256 259 256 255 256 256 256 255 255
259 259 261 261 261 261 261 260 260 260 258 258 258 257 256 255 254 252 250 250 250 249 248 247 245 245 244 244 245 245 247 247 246 247 249 250 252 253 253 255 257 257 257 257 256 256 255 255 256
260 261 262 262 262 262 262 260 259 260 260 259 260 258 257 256 254 252 251 250 250 249 248 247 247 246 245 245 246 246 247 247 247 247 248 249 250 253 254 255 256 257 257 258 257 256 257 255 256
262 263 264 265 264 263 263 260 260 260 261 261 261 260 257 256 255 253 252 251 250 248 247 247 247 247 247 246 246 245 246 246 247 248 249 250 251 253 255 255 255 255 256 256 256 259 259 257 258
263 265 266 266 265 264 264 262 261 261 261 262 260 259 258 257 255 254 252 251 249 247 247 247 248 248 249 248 247 246 246 246 246 247 249 250 252 253 254 255 254 254 255 256 258 258 258 258 260
265 266 266 266 265 265 264 263 262 261 261 261 260 259 259 257 255 253 252 251 249 246 246 247 248 248 248 248 248 247 246 246 246 247 248 250 252 253 254 254 255 256 256 256 258 257 257 259 260
265 265 265 265 265 265 266 265 264 262 261 261 260 260 259 258 256 254 252 252 249 247 247 248 249 248 246 246 248 248 248 247 246 247 248 249 251 252 253 254 255 255 255 256 258 257 258 259 260
264 265 265 265 265 265 265 265 264 264 263 261 261 260 259 259 258 256 252 251 250 248 248 248 249 248 246 246 247 247 248 248 248 249 248 249 251 253 254 254 254 255 255 256 257 258 259 259 260
265 265 265 265 266 265 265 264 264 265 264 263 262 261 260 259 258 256 253 252 250 249 248 248 249 248 247 247 247 247 247 248 249 250 249 250 252 252 253 254 255 256 256 257 257 258 258 258 259
266 266 266 265 266 265 265 264 265 264 263 263 262 261 260 259 258 256 253 252 250 249 249 249 248 248 248 248 248 246 246 247 248 249 250 251 252 253 253 255 255 257 258 258 258 258 259 259 260
267 266 266 265 266 266 266 264 264 263 263 263 263 263 261 260 258 256 254 252 251 250 249 250 249 249 249 248 248 247 246 246 248 249 250 251 252 252 253 254 255 256 258 258 259 259 259 260 260
268 266 265 265 265 266 266 265 264 264 264 263 263 263 262 260 259 257 255 253 252 252 251 251 250 250 250 249 247 247 246 247 248 249 250 251 252 253 253 255 255 256 257 259 259 259 259 260 260
267 266 265 264 264 265 265 265 265 265 263 261 261 261 260 258 258 258 257 255 253 253 252 252 251 250 248 248 247 247 247 248 249 250 251 252 253 254 254 254 256 257 258 259 260 260 260 260 260
266 267 266 264 264 264 264 264 264 264 262 261 261 260 259 258 259 259 259 257 256 255 254 255 253 251 249 248 249 249 250 251 252 252 252 252 254 254 255 255 256 257 258 259 259 260 260 260 260
267 267 267 265 265 266 265 264 263 264 263 261 261 261 260 260 260 260 260 260 258 257 255 255 254 254 252 251 251 252 252 253 254 254 253 252 252 253 255 255 255 257 257 258 258 259 259 259 260
267 267 268 267 266 266 266 265 264 263 263 264 264 264 263 262 261 261 261 261 260 259 257 256 256 254 254 254 253 254 256 255 255 255 254 254 253 253 254 255 256 256 257 257 257 258 259 260 261
267 267 267 267 266 266 267 267 264 264 263 265 266 266 266 265 263 263 263 263 261 260 258 258 257 256 255 255 254 255 256 257 256 255 255 255 254 254 255 256 256 257 257 257 257 259 259 260 261
266 266 267 268 267 267 268 268 268 267 267 267 267 267 267 267 266 265 265 264 262 260 260 258 258 257 257 257 257 257 258 257 256 255 256 255 254 254 255 256 256 257 257 258 259 260 261 262 263
266 266 267 266 267 267 269 270 271 270 269 267 267 268 269 269 268 266 266 264 262 261 260 259 259 258 259 260 260 259 259 257 256 256 257 257 256 256 255 256 257 257 257 258 258 259 262 263 264
267 266 267 268 268 269 270 270 273 272 269 266 267 268 270 270 269 268 266 264 263 261 260 260 260 261 262 262 262 262 262 260 259 257 257 258 258 258 257 257 258 257 257 258 258 260 262 263 264
266 265 266 268 270 270 270 271 273 272 270 269 269 270 271 272 271 269 267 265 264 263 263 263 263 263 263 264 265 265 264 262 261 259 258 259 259 260 260 259 259 258 259 259 260 260 263 264 264
265 264 267 269 271 271 271 271 270 270 271 271 271 272 273 273 272 270 269 267 266 265 266 268 267 266 265 266 266 266 265 265 263 261 259 259 259 260 260 260 258 258 258 260 260 262 263 264 265
266 266 267 268 271 272 273 273 272 272 272 271 272 272 272 273 272 273 272 269 268 268 268 270 270 269 269 269 269 268 268 267 265 263 262 260 260 260 260 260 259 259 260 261 262 262 263 264 265
266 265 266 268 269 272 274 275 275 276 275 274 272 272 271 272 274 275 274 272 271 270 271 271 272 272 272 273 272 271 270 269 267 266 265 263 261 261 261 261 261 260 260 261 262 262 263 264 264
268 268 268 269 270 272 274 275 274 274 274 275 273 272 272 275 276 276 277 275 273 272 273 272 273 274 274 274 274 274 273 271 269 268 266 265 264 262 262 262 262 261 261 262 262 262 262 263 264
Height
5791 5792 5793 5795 5796 5797 5798 5801 5802 5803 5804 5804 5805 5806 5808 5810 5812 5815 5815 5815 5816 5817 5818 5820 5821 5822 5823 5825 5826 5827 5828 5829 5830 5831 5832 5833 5834 5835 5836 5837 5838 5839 5840 5841 5842 5843 5844 5844 5845
5786 5787 5789 5790 5791 5792 5795 5796 5797 5798 5799 5800 5801 5802 5803 5805 5806 5808 5809 5810 5812 5813 5814 5816 5817 5818 5820 5821 5823 5824 5825 5826 5827 5828 5829 5830 5831 5832 5834 5835 5836 5837 5838 5839 5840 5841 5841 5842 5843
5781 5782 5784 5785 5786 5788 5790 5791 5792 5792 5793 5794 5796 5797 5798 5800 5801 5802 5804 5805 5807 5809 5810 5811 5813 5814 5816 5817 5819 5820 5821 5822 5823 5825 5826 5827 5828 5830 5831 5832 5833 5834 5835 5836 5837 5838 5839 5840 5840
5776 5778 5779 5780 5781 5783 5784 5785 5785 5786 5787 5789 5790 5792 5793 5795 5796 5797 5799 5800 5802 5804 5805 5807 5809 5810 5812 5813 5815 5816 5818 5819 5820 5821 5823 5824 5825 5826 5828 5829 5830 5831 5832 5833 5834 5835 5836 5837 5838
5771 5772 5773 5774 5776 5777 5778 5779 5780 5781 5782 5783 5785 5786 5787 5789 5790 5792 5793 5795 5797 5799 5800 5802 5804 5806 5807 5809 5810 5812 5814 5815 5816 5818 5819 5820 5822 5823 5824 5825 5827 5828 5829 5830 5831 5832 5833 5833 5834
5765 5766 5768 5769 5771 5772 5773 5773 5774 5775 5776 5777 5779 5780 5781 5783 5784 5786 5788 5789 5791 5793 5795 5796 5798 5801 5802 5804 5806 5807 5809 5811 5812 5814 5815 5816 5818 5819 5820 5822 5823 5824 5825 5826 5827 5828 5829 5830 5831
5760 5761 5762 5764 5765 5766 5767 5767 5768 5769 5770 5771 5772 5773 5775 5776 5778 5779 5781 5783 5785 5787 5789 5791 5793 5795 5797 5799 5801 5803 5804 5806 5808 5809 5811 5812 5813 5815 5816 5818 5819 5820 5821 5822 5823 5824 5825 5826 5827
5753 5755 5756 5758 5759 5760 5761 5761 5762 5762 5763 5764 5765 5766 5768 5769 5770 5772 5774 5776 5778 5780 5782 5784 5787 5789 5791 5793 5795 5797 5799 5801 5802 5804 5806 5808 5809 5810 5812 5813 5814 5816 5816 5818 5819 5820 5821 5822 5823
5747 5749 5750 5752 5752 5753 5754 5755 5756 5756 5757 5757 5758 5759 5760 5761 5763 5764 5766 5768 5770 5772 5775 5778 5780 5782 5785 5787 5789 5791 5793 5795 5797 5798 5800 5802 5804 5805 5806 5808 5809 5810 5812 5813 5814 5815 5816 5817 5818
5741 5743 5744 5745 5745 5746 5747 5748 5749 5749 5750 5751 5751 5751 5752 5753 5755 5756 5758 5760 5762 5765 5767 5770 5772 5775 5777 5780 5782 5784 5786 5788 5791 5793 5795 5797 5798 5799 5801 5802 5804 5805 5806 5807 5809 5810 5811 5812 5813
5735 5737 5738 5738 5738 5739 5740 5740 5741 5742 5743 5743 5743 5744 5745 5746 5747 5748 5750 5752 5754 5757 5760 5762 5765 5767 5770 5772 5775 5777 5779 5781 5784 5786 5788 5790 5792 5793 5795 5796 5798 5799 5801 5802 5803 5804 5805 5806 5807
5729 5730 5731 5731 5731 5732 5732 5733 5733 5734 5735 5735 5736 5736 5737 5738 5739 5740 5742 5744 5746 5749 5752 5754 5756 5759 5761 5764 5766 5769 5771 5773 5776 5779 5781 5783 5785 5787 5788 5790 5791 5793 5794 5796 5797 5798 5799 5800 5801
5723 5724 5724 5724 5724 5725 5725 5725 5726 5727 5727 5727 5727 5728 5729 5730 5731 5732 5734 5736 5738 5741 5743 5746 5748 5750 5752 5755 5757 5760 5763 5765 5768 5771 5773 5775 5777 5779 5781 5783 5784 5786 5787 5789 5790 5791 5792 5793 5795
5716 5717 5717 5717 5717 5717 5718 5718 5719 5719 5719 5719 5719 5720 5721 5722 5723 5725 5726 5728 5730 5732 5735 5737 5739 5741 5744 5746 5748 5751 5754 5757 5760 5762 5764 5767 5769 5771 5773 5775 5776 5778 5780 5781 5783 5784 5785 5786 5787
5709 5710 5710 5710 5709 5710 5710 5711 5712 5711 5711 5711 5712 5712 5713 5714 5715 5717 5718 5720 5722 5724 5726 5728 5731 5733 5735 5738 5740 5742 5745 5748 5751 5754 5756 5758 5761 5763 5765 5767 5768 5770 5771 5773 5774 5776 5778 5779 5780
5701 5701 5702 5702 5702 5702 5703 5704 5704 5703 5703 5704 5704 5705 5705 5706 5707 5709 5711 5713 5714 5716 5718 5720 5722 5725 5727 5729 5732 5734 5737 5740 5742 5745 5747 5749 5752 5753 5755 5758 5759 5761 5762 5764 5766 5767 5769 5770 5772
5693 5694 5694 5695 5694 5694 5695 5696 5696 5695 5696 5696 5697 5698 5698 5699 5701 5702 5703 5705 5706 5708 5710 5712 5714 5716 5718 5721 5723 5725 5728 5731 5733 5736 5738 5740 5742 5744 5746 5748 5750 5752 5753 5755 5757 5758 5760 5761 5762
5686 5687 5687 5687 5687 5687 5687 5689 5689 5688 5689 5689 5690 5691 5692 5693 5694 5695 5696 5697 5699 5700 5702 5704 5706 5708 5710 5712 5714 5717 5719 5722 5724 5726 5729 5731 5733 5735 5737 5739 5741 5742 5744 5745 5747 5748 5750 5751 5752
5679 5679 5680 5680 5679 5680 5680 5682 5682 5682 5682 5682 5683 5684 5685 5686 5687 5688 5689 5690 5691 5693 5694 5695 5697 5699 5701 5703 5706 5708 5711 5713 5715 5717 5719 5721 5723 5725 5727 5729 5731 5732 5734 5735 5737 5738 5739 5741 5742
5672 5673 5673 5673 5672 5673 5673 5675 5675 5675 5675 5676 5676 5677 5677 5678 5680 5681 5682 5683 5684 5685 5686 5687 5688 5690 5692 5695 5697 5699 5701 5704 5705 5707 5709 5711 5713 5715 5717 5719 5721 5722 5724 5725 5726 5727 5728 5730 5732
5666 5666 5666 5666 5666 5666 5667 5668 5669 5669 5669 5669 5669 5669 5670 5671 5672 5673 5674 5675 5675 5676 5677 5678 5680 5681 5683 5685 5687 5689 5691 5693 5695 5697 5699 5700 5702 5704 5706 5708 5710 5712 5713 5714 5716 5717 5719 5720 5721
5660 5660 5660 5659 5659 5659 5660 5660 5663 5663 5662 5662 5662 5663 5663 5664 5665 5666 5666 5667 5667 5668 5669 5670 5671 5672 5674 5675 5677 5679 5681 5683 5685 5686 5688 5689 5691 5693 5695 5697 5699 5701 5703 5704 5705 5706 5707 5709 5710
5653 5653 5653 5653 5652 5652 5653 5652 5655 5656 5656 5655 5655 5655 5656 5656 5657 5658 5658 5658 5659 5659 5660 5661 5662 5663 5665 5666 5667 5668 5670 5672 5673 5675 5677 5678 5680 5682 5684 5686 5688 5689 5691 5693 5694 5695 5697 5698 5699
5646 5647 5646 5646 5645 5646 5647 5646 5647 5649 5649 5649 5648 5648 5648 5648 5649 5649 5649 5650 5650 5651 5651 5652 5653 5654 5655 5656 5657 5658 5659 5660 5661 5663 5665 5667 5669 5670 5672 5674 5676 5678 5680 5681 5683 5684 5685 5686 5688
5640 5640 5640 5638 5638 5639 5640 5639 5641 5642 5642 5642 5641 5641 5641 5641 5641 5641 5641 5641 5641 5642 5642 5643 5644 5645 5645 5646 5646 5647 5648 5648 5650 5651 5653 5655 5657 5658 5660 5662 5664 5665 5668 5669 5671 5672 5674 5674 5676
5633 5633 5634 5633 5632 5633 5633 5632 5635 5635 5635 5634 5634 5634 5633 5633 5633 5632 5632 5633 5633 5633 5633 5634 5634 5635 5636 5636 5636 5636 5637 5637 5638 5639 5641 5643 5644 5646 5647 5650 5651 5653 5655 5657 5659 5660 5661 5662 5663
5626 5626 5627 5626 5625 5625 5626 5627 5629 5629 5628 5628 5628 5627 5626 5625 5625 5624 5624 5624 5624 5625 5625 5625 5625 5625 5626 5625 5625 5625 5625 5625 5626 5627 5628 5630 5632 5633 5635 5637 5639 5641 5643 5644 5646 5647 5648 5649 5650
5620 5620 5620 5619 5617 5617 5619 5620 5622 5622 5622 5621 5621 5620 5619 5618 5617 5617 5616 5616 5616 5616 5616 5616 5616 5615 5615 5615 5614 5614 5614 5614 5614 5614 5615 5617 5619 5620 5622 5624 5626 5628 5630 5631 5632 5634 5635 5636 5636
5614 5614 5612 5612 5612 5612 5611 5616 5616 5615 5615 5614 5613 5612 5612 5611 5610 5609 5608 5608 5608 5608 5607 5607 5606 5606 5605 5604 5604 5603 5603 5602 5602 5602 5602 5604 5605 5607 5609 5611 5612 5614 5616 5617 5619 5620 5621 5622 5623
5606 5607 5606 5606 5606 5605 5605 5610 5609 5609 5607 5606 5606 5605 5604 5604 5603 5602 5601 5600 5599 5599 5598 5598 5597 5596 5596 5594 5593 5593 5592 5591 5590 5590 5590 5591 5593 5594 5596 5597 5599 5601 5602 5603 5605 5606 5607 5608 5609